Zurück zum Katalog

STARLINK-34291

AktivKommunikationVLEO
NORAD 64359·PAYLOAD·🇺🇸 United States

Gestartet Jun 13, 2025 von Vandenberg Space Force Base

Loading…

Nächste Überflüge (nächste 24 Stunden)

TLE

AktuellSource: CelesTrak SupGP

Epoche: Sep 14, 2026, 21:20 UTC

1 64359C 25126R   26257.88937500  .00068794  00000+0  23941-2 0  2576
2 64359  69.9998 275.9165 0003473 266.6583 308.3506 15.29530518    12

Verfolge STARLINK-34291 in Echtzeit mit AllMySat

Download on the App Store